Find Starlink 11555

NORAD ID: 62915 Int'l Des: 2025-027 Owner: SPXS Country: US Constellation: starlink operational
別名: STARLINK-11555 [DTC] celestrak
LEOCIRCULAR

現在のビュー

3D地球を読み込み中...

About Starlink 11555

Starlink 11555 (NORAD 62915) is a starlink constellation satellite (v2 mini d2c) launched Feb 8, 2025 by SPXS of US. It operates in LEO, CIRCULAR orbit with a mass of 960.00 kg.

次回通過

Passes for default location (London). Set your location on the main map for personalized predictions.

高度履歴

Loading altitude history...

軌道要素

1 62915U 25027J 26263.02895574 .00160928 00000-0 12303-2 0 9995
2 62915 42.9991 256.5186 0001529 246.0633 114.0075 15.70902261 93758
Epoch: Sep 20, 2026 • Age: 27 hours

現在のステータス

高度 356.1 km
遠地点 / 近地点 N/A
速度 7.70 km/s
衛星直下点 -6.05°S, 178.74°W
打ち上げ日 Feb 8, 2025
運用期間 1.6 years
タイプ internet

技術仕様

分類 Payload
質量 960.00 kg
乾燥質量 910.00 kg
長さ 0.30 m
スパン 29.00 m
形状 ? Box + pan
製造者 SPXS
バスタイプ Starlink V2MD
フェーズステータス In Orbit
所有者/国 SPXS/US

Most Searched